Time,TemperatureF,DewpointF,PressureIn,WindDirection,WindDirectionDegrees,WindSpeedMPH,WindSpeedGustMPH,Humidity,HourlyPrecipIn,Conditions,Clouds,dailyrainin,SoftwareType,DateUTC
2013-05-13 00:03:00,67.1,63.0,30.01,WNW,291,0.0,-999.0,85,-99.99,,,0.00,weatherlink.com 1.10,2013-05-13 04:03:00,
2013-05-13 00:18:00,67.3,63.0,30.02,WNW,290,0.0,-999.0,87,-99.99,,,0.00,weatherlink.com 1.10,2013-05-13 04:18:00,
2013-05-13 00:37:00,67.3,64.0,30.02,WNW,291,0.0,-999.0,88,-99.99,,,0.00,weatherlink.com 1.10,2013-05-13 04:37:00,
2013-05-13 00:48:00,67.3,63.0,30.02,WNW,291,0.0,-999.0,87,-99.99,,,0.00,weatherlink.com 1.10,2013-05-13 04:48:00,
2013-05-13 01:03:00,67.1,63.0,30.01,WNW,291,0.0,-999.0,86,-99.99,,,0.00,weatherlink.com 1.10,2013-05-13 05:03:00,
2013-05-13 01:18:00,66.9,62.0,30.01,WNW,290,0.0,-999.0,84,-99.99,,,0.00,weatherlink.com 1.10,2013-05-13 05:18:00,
2013-05-13 01:37:00,66.7,62.0,30.00,WNW,291,0.0,-999.0,86,-99.99,,,0.00,weatherlink.com 1.10,2013-05-13 05:37:00,
2013-05-13 01:48:00,66.2,62.0,30.00,WNW,291,0.0,-999.0,87,-99.99,,,0.00,weatherlink.com 1.10,2013-05-13 05:48:00,
2013-05-13 02:03:00,65.8,62.0,29.99,WNW,290,0.0,-999.0,87,-99.99,,,0.00,weatherlink.com 1.10,2013-05-13 06:03:00,
2013-05-13 02:18:00,65.1,62.0,30.00,WNW,291,0.0,-999.0,88,-99.99,,,0.00,weatherlink.com 1.10,2013-05-13 06:18:00,
2013-05-13 02:37:00,64.8,61.0,30.00,WNW,291,0.0,-999.0,87,-99.99,,,0.00,weatherlink.com 1.10,2013-05-13 06:37:00,
2013-05-13 02:48:00,64.5,60.0,30.00,WNW,291,0.0,-999.0,86,-99.99,,,0.00,weatherlink.com 1.10,2013-05-13 06:48:00,
2013-05-13 03:03:00,64.6,61.0,30.01,WNW,291,0.0,-999.0,87,-99.99,,,0.00,weatherlink.com 1.10,2013-05-13 07:03:00,
2013-05-13 03:18:00,64.3,59.0,30.01,WNW,290,0.0,-999.0,84,-99.99,,,0.00,weatherlink.com 1.10,2013-05-13 07:18:00,
2013-05-13 03:25:00,64.4,59.8,30.01,WNW,295,0.0,0.0,85,0.00,,,0.00,Wunderground v.1.15,2013-05-13 07:25:00,
2013-05-13 03:30:00,64.4,59.8,30.01,WNW,295,0.0,0.0,85,0.00,,,0.00,Wunderground v.1.15,2013-05-13 07:30:00,
2013-05-13 03:37:00,64.3,60.0,30.00,WNW,291,0.0,-999.0,85,-99.99,,,0.00,weatherlink.com 1.10,2013-05-13 07:37:00,
2013-05-13 03:45:00,64.4,59.8,30.01,WNW,295,0.0,0.0,85,0.00,,,0.00,Wunderground v.1.15,2013-05-13 07:45:00,
2013-05-13 03:50:00,64.5,59.9,30.01,WNW,295,0.0,0.0,85,0.00,,,0.00,Wunderground v.1.15,2013-05-13 07:50:00,
2013-05-13 03:55:00,64.6,59.7,30.01,WNW,295,0.0,0.0,84,0.00,,,0.00,Wunderground v.1.15,2013-05-13 07:55:00,
2013-05-13 04:03:00,64.6,60.0,30.01,WNW,291,0.0,-999.0,85,-99.99,,,0.00,weatherlink.com 1.10,2013-05-13 08:03:00,
2013-05-13 04:10:00,64.6,59.3,30.01,WNW,295,0.0,0.0,83,0.00,,,0.00,Wunderground v.1.15,2013-05-13 08:10:00,
2013-05-13 04:15:00,64.6,59.3,30.01,WNW,295,0.0,0.0,83,0.00,,,0.00,Wunderground v.1.15,2013-05-13 08:15:00,
2013-05-13 04:20:00,64.7,60.1,30.01,WNW,295,0.0,0.0,85,0.00,,,0.00,Wunderground v.1.15,2013-05-13 08:20:00,
2013-05-13 04:25:00,64.9,60.6,30.01,WNW,296,0.0,0.0,86,0.00,,,0.00,Wunderground v.1.15,2013-05-13 08:25:00,
2013-05-13 04:30:00,65.0,60.7,30.01,WNW,295,0.0,0.0,86,0.00,,,0.00,Wunderground v.1.15,2013-05-13 08:30:00,
2013-05-13 04:35:00,65.0,60.7,30.01,WNW,295,0.0,0.0,86,0.00,,,0.00,Wunderground v.1.15,2013-05-13 08:35:00,
2013-05-13 04:40:00,65.0,60.7,30.01,WNW,295,0.0,0.0,86,0.00,,,0.00,Wunderground v.1.15,2013-05-13 08:40:00,
2013-05-13 04:48:00,64.9,61.0,30.01,WNW,291,0.0,-999.0,86,-99.99,,,0.00,weatherlink.com 1.10,2013-05-13 08:48:00,
2013-05-13 05:03:00,65.3,60.0,30.01,WNW,290,0.0,-999.0,82,-99.99,,,0.00,weatherlink.com 1.10,2013-05-13 09:03:00,
2013-05-13 05:18:00,65.4,59.0,30.01,WNW,290,0.0,-999.0,81,-99.99,,,0.00,weatherlink.com 1.10,2013-05-13 09:18:00,
2013-05-13 05:37:00,65.9,59.0,30.02,WNW,290,0.0,-999.0,78,-99.99,,,0.00,weatherlink.com 1.10,2013-05-13 09:37:00,
2013-05-13 05:48:00,66.4,58.0,30.03,SE,142,0.0,-999.0,75,-99.99,,,0.00,weatherlink.com 1.10,2013-05-13 09:48:00,
2013-05-13 06:03:00,66.5,58.0,30.03,SE,142,0.0,-999.0,73,-99.99,,,0.00,weatherlink.com 1.10,2013-05-13 10:03:00,
2013-05-13 06:18:00,66.4,57.0,30.03,SSW,200,0.0,-999.0,72,-99.99,,,0.00,weatherlink.com 1.10,2013-05-13 10:18:00,
2013-05-13 06:37:00,66.2,56.0,30.04,SSW,202,0.0,-999.0,69,-99.99,,,0.00,weatherlink.com 1.10,2013-05-13 10:37:00,
2013-05-13 06:48:00,65.9,54.0,30.05,SSW,205,0.0,-999.0,66,-99.99,,,0.00,weatherlink.com 1.10,2013-05-13 10:48:00,
2013-05-13 07:03:00,65.6,53.0,30.06,West,273,0.0,-999.0,65,-99.99,,,0.00,weatherlink.com 1.10,2013-05-13 11:03:00,
2013-05-13 07:18:00,65.2,53.0,30.06,SSW,199,0.0,-999.0,64,-99.99,,,0.00,weatherlink.com 1.10,2013-05-13 11:18:00,
2013-05-13 07:37:00,65.1,52.0,30.07,SE,143,0.0,-999.0,63,-99.99,,,0.00,weatherlink.com 1.10,2013-05-13 11:37:00,
2013-05-13 07:43:00,65.2,52.7,30.07,SE,135,0.0,1.0,64,0.00,,,0.00,Wunderground v.1.15,2013-05-13 11:43:00,
2013-05-13 07:48:00,65.0,52.0,30.07,SE,137,0.0,-999.0,63,-99.99,,,0.00,weatherlink.com 1.10,2013-05-13 11:48:00,
2013-05-13 07:54:00,65.2,53.1,30.08,ENE,64,0.0,0.0,65,0.00,,,0.00,Wunderground v.1.15,2013-05-13 11:54:00,
2013-05-13 07:59:00,65.1,52.2,30.08,ENE,62,0.0,0.0,63,0.00,,,0.00,Wunderground v.1.15,2013-05-13 11:59:00,
2013-05-13 08:05:00,65.1,52.6,30.08,ENE,62,0.0,0.0,64,0.00,,,0.00,Wunderground v.1.15,2013-05-13 12:05:00,
2013-05-13 08:10:00,65.1,51.8,30.09,ENE,62,0.0,0.0,62,0.00,,,0.00,Wunderground v.1.15,2013-05-13 12:10:00,
2013-05-13 08:16:00,65.1,51.8,30.09,ENE,63,0.0,0.0,62,0.00,,,0.00,Wunderground v.1.15,2013-05-13 12:16:00,
2013-05-13 08:38:00,64.8,50.0,30.09,SSE,167,0.0,-999.0,59,-99.99,,,0.00,weatherlink.com 1.10,2013-05-13 12:38:00,
2013-05-13 08:49:00,64.7,50.0,30.09,South,169,0.0,-999.0,60,-99.99,,,0.00,weatherlink.com 1.10,2013-05-13 12:49:00,
2013-05-13 09:04:00,64.6,49.0,30.10,South,171,0.0,-999.0,58,-99.99,,,0.00,weatherlink.com 1.10,2013-05-13 13:04:00,
2013-05-13 09:19:00,64.5,49.0,30.11,WSW,246,0.0,-999.0,58,-99.99,,,0.00,weatherlink.com 1.10,2013-05-13 13:19:00,
2013-05-13 09:38:00,64.7,50.0,30.12,WSW,246,0.0,-999.0,60,-99.99,,,0.00,weatherlink.com 1.10,2013-05-13 13:38:00,
2013-05-13 09:49:00,65.2,49.0,30.12,WSW,246,0.0,-999.0,56,-99.99,,,0.00,weatherlink.com 1.10,2013-05-13 13:49:00,
2013-05-13 10:04:00,65.8,50.0,30.12,WSW,257,1.0,-999.0,58,-99.99,,,0.00,weatherlink.com 1.10,2013-05-13 14:04:00,
2013-05-13 10:19:00,67.0,51.0,30.12,West,260,0.0,-999.0,56,-99.99,,,0.00,weatherlink.com 1.10,2013-05-13 14:19:00,
2013-05-13 10:38:00,69.2,54.0,30.12,West,259,0.0,-999.0,59,-99.99,,,0.00,weatherlink.com 1.10,2013-05-13 14:38:00,
2013-05-13 10:49:00,71.8,50.0,30.12,NW,325,0.0,-999.0,46,-99.99,,,0.00,weatherlink.com 1.10,2013-05-13 14:49:00,
2013-05-13 11:04:00,72.7,47.0,30.13,WNW,303,0.0,-999.0,40,-99.99,,,0.00,weatherlink.com 1.10,2013-05-13 15:04:00,
2013-05-13 11:19:00,73.8,49.0,30.13,NNW,327,1.0,-999.0,42,-99.99,,,0.00,weatherlink.com 1.10,2013-05-13 15:19:00,
2013-05-13 11:38:00,73.6,48.0,30.13,West,275,0.0,-999.0,40,-99.99,,,0.00,weatherlink.com 1.10,2013-05-13 15:38:00,
2013-05-13 11:49:00,74.4,48.0,30.13,SW,219,4.0,-999.0,39,-99.99,,,0.00,weatherlink.com 1.10,2013-05-13 15:49:00,
2013-05-13 12:04:00,74.7,45.0,30.13,WNW,300,1.0,-999.0,35,-99.99,,,0.00,weatherlink.com 1.10,2013-05-13 16:04:00,
2013-05-13 12:19:00,75.6,48.0,30.13,WNW,288,0.0,-999.0,38,-99.99,,,0.00,weatherlink.com 1.10,2013-05-13 16:19:00,
2013-05-13 12:38:00,76.0,49.0,30.12,WNW,285,0.0,-999.0,38,-99.99,,,0.00,weatherlink.com 1.10,2013-05-13 16:38:00,
2013-05-13 12:45:00,76.6,49.1,30.12,West,280,1.0,1.0,38,0.00,,,0.00,Wunderground v.1.15,2013-05-13 16:45:00,
2013-05-13 12:50:00,76.8,53.2,30.12,NNW,335,0.0,1.0,44,0.00,,,0.00,Wunderground v.1.15,2013-05-13 16:50:00,
2013-05-13 12:55:00,76.8,51.3,30.12,WNW,289,1.0,1.0,41,0.00,,,0.00,Wunderground v.1.15,2013-05-13 16:55:00,
2013-05-13 13:04:00,76.3,47.0,30.12,NNW,327,0.0,-999.0,36,-99.99,,,0.00,weatherlink.com 1.10,2013-05-13 17:04:00,
2013-05-13 13:19:00,76.7,50.0,30.11,East,83,1.0,-999.0,39,-99.99,,,0.00,weatherlink.com 1.10,2013-05-13 17:19:00,
2013-05-13 13:38:00,77.6,50.0,30.10,NW,312,0.0,-999.0,38,-99.99,,,0.00,weatherlink.com 1.10,2013-05-13 17:38:00,
2013-05-13 13:49:00,78.3,51.0,30.10,SW,230,1.0,-999.0,39,-99.99,,,0.00,weatherlink.com 1.10,2013-05-13 17:49:00,
2013-05-13 14:04:00,77.8,47.0,30.09,WNW,287,0.0,-999.0,34,-99.99,,,0.00,weatherlink.com 1.10,2013-05-13 18:04:00,
2013-05-13 14:19:00,76.2,47.0,30.09,NW,311,0.0,-999.0,36,-99.99,,,0.00,weatherlink.com 1.10,2013-05-13 18:19:00,
2013-05-13 14:38:00,77.9,48.0,30.09,WSW,238,0.0,-999.0,35,-99.99,,,0.00,weatherlink.com 1.10,2013-05-13 18:38:00,
2013-05-13 14:49:00,78.0,43.0,30.09,West,277,1.0,-999.0,29,-99.99,,,0.00,weatherlink.com 1.10,2013-05-13 18:49:00,
2013-05-13 15:04:00,77.6,45.0,30.09,NNW,348,1.0,-999.0,31,-99.99,,,0.00,weatherlink.com 1.10,2013-05-13 19:04:00,
2013-05-13 15:19:00,77.8,43.0,30.09,WSW,257,1.0,-999.0,29,-99.99,,,0.00,weatherlink.com 1.10,2013-05-13 19:19:00,
2013-05-13 15:38:00,78.3,47.0,30.08,NNE,30,0.0,-999.0,33,-99.99,,,0.00,weatherlink.com 1.10,2013-05-13 19:38:00,
2013-05-13 15:49:00,78.0,47.0,30.07,NE,40,1.0,-999.0,34,-99.99,,,0.00,weatherlink.com 1.10,2013-05-13 19:49:00,
2013-05-13 16:04:00,78.0,49.0,30.06,ENE,63,0.0,-999.0,36,-99.99,,,0.00,weatherlink.com 1.10,2013-05-13 20:04:00,
2013-05-13 16:19:00,78.4,46.0,30.07,SW,226,0.0,-999.0,32,-99.99,,,0.00,weatherlink.com 1.10,2013-05-13 20:19:00,
2013-05-13 16:38:00,78.3,43.0,30.06,NW,315,0.0,-999.0,28,-99.99,,,0.00,weatherlink.com 1.10,2013-05-13 20:38:00,
2013-05-13 16:49:00,77.8,44.0,30.06,WNW,288,1.0,-999.0,30,-99.99,,,0.00,weatherlink.com 1.10,2013-05-13 20:49:00,
2013-05-13 17:04:00,76.4,49.0,30.06,WNW,293,0.0,-999.0,38,-99.99,,,0.00,weatherlink.com 1.10,2013-05-13 21:04:00,
2013-05-13 17:19:00,75.1,48.0,30.06,East,86,0.0,-999.0,38,-99.99,,,0.00,weatherlink.com 1.10,2013-05-13 21:19:00,
2013-05-13 17:38:00,73.5,55.0,30.06,South,186,0.0,-999.0,53,-99.99,,,0.00,weatherlink.com 1.10,2013-05-13 21:38:00,
2013-05-13 17:49:00,72.5,54.0,30.06,South,178,0.0,-999.0,52,-99.99,,,0.00,weatherlink.com 1.10,2013-05-13 21:49:00,
2013-05-13 18:04:00,72.5,53.0,30.06,SE,134,0.0,-999.0,50,-99.99,,,0.00,weatherlink.com 1.10,2013-05-13 22:04:00,
2013-05-13 18:19:00,72.5,56.0,30.06,SE,126,3.0,-999.0,57,-99.99,,,0.00,weatherlink.com 1.10,2013-05-13 22:19:00,
2013-05-13 18:38:00,71.6,55.0,30.06,South,170,0.0,-999.0,57,-99.99,,,0.00,weatherlink.com 1.10,2013-05-13 22:38:00,
2013-05-13 18:49:00,71.0,56.0,30.07,ESE,110,1.0,-999.0,60,-99.99,,,0.00,weatherlink.com 1.10,2013-05-13 22:49:00,
2013-05-13 19:04:00,70.6,55.0,30.06,ESE,122,0.0,-999.0,59,-99.99,,,0.00,weatherlink.com 1.10,2013-05-13 23:04:00,
2013-05-13 19:19:00,70.1,57.0,30.07,ESE,118,0.0,-999.0,63,-99.99,,,0.00,weatherlink.com 1.10,2013-05-13 23:19:00,
2013-05-13 19:38:00,69.2,56.0,30.07,ESE,115,0.0,-999.0,64,-99.99,,,0.00,weatherlink.com 1.10,2013-05-13 23:38:00,
2013-05-13 19:49:00,68.2,56.0,30.07,ESE,116,0.0,-999.0,66,-99.99,,,0.00,weatherlink.com 1.10,2013-05-13 23:49:00,
2013-05-13 20:04:00,67.1,56.0,30.08,ESE,115,0.0,-999.0,68,-99.99,,,0.00,weatherlink.com 1.10,2013-05-14 00:04:00,
2013-05-13 20:19:00,66.1,57.0,30.09,ESE,115,0.0,-999.0,72,-99.99,,,0.00,weatherlink.com 1.10,2013-05-14 00:19:00,
2013-05-13 20:38:00,64.8,56.0,30.09,ESE,116,0.0,-999.0,74,-99.99,,,0.00,weatherlink.com 1.10,2013-05-14 00:38:00,
2013-05-13 20:49:00,63.6,57.0,30.10,ESE,116,0.0,-999.0,78,-99.99,,,0.00,weatherlink.com 1.10,2013-05-14 00:49:00,
2013-05-13 21:04:00,62.5,56.0,30.10,ESE,116,0.0,-999.0,80,-99.99,,,0.00,weatherlink.com 1.10,2013-05-14 01:04:00,
2013-05-13 21:19:00,61.8,57.0,30.11,ESE,116,0.0,-999.0,83,-99.99,,,0.00,weatherlink.com 1.10,2013-05-14 01:19:00,
2013-05-13 21:38:00,61.2,57.0,30.12,ESE,116,0.0,-999.0,85,-99.99,,,0.00,weatherlink.com 1.10,2013-05-14 01:38:00,
2013-05-13 21:49:00,60.7,57.0,30.12,ESE,117,0.0,-999.0,88,-99.99,,,0.00,weatherlink.com 1.10,2013-05-14 01:49:00,
2013-05-13 22:04:00,60.2,57.0,30.12,ESE,115,0.0,-999.0,89,-99.99,,,0.00,weatherlink.com 1.10,2013-05-14 02:04:00,
2013-05-13 22:19:00,59.8,57.0,30.13,ESE,116,0.0,-999.0,90,-99.99,,,0.00,weatherlink.com 1.10,2013-05-14 02:19:00,
2013-05-13 22:39:00,59.5,57.0,30.13,ESE,116,0.0,-999.0,91,-99.99,,,0.00,weatherlink.com 1.10,2013-05-14 02:39:00,
2013-05-13 22:50:00,59.2,57.0,30.13,ESE,116,0.0,-999.0,92,-99.99,,,0.00,weatherlink.com 1.10,2013-05-14 02:50:00,
2013-05-13 23:05:00,58.9,57.0,30.14,West,271,0.0,-999.0,93,-99.99,,,0.00,weatherlink.com 1.10,2013-05-14 03:05:00,
2013-05-13 23:20:00,58.7,57.0,30.14,West,270,0.0,-999.0,94,-99.99,,,0.00,weatherlink.com 1.10,2013-05-14 03:20:00,
2013-05-13 23:39:00,58.5,57.0,30.14,West,270,0.0,-999.0,94,-99.99,,,0.00,weatherlink.com 1.10,2013-05-14 03:39:00,
2013-05-13 23:50:00,58.2,57.0,30.14,West,271,0.0,-999.0,94,-99.99,,,0.00,weatherlink.com 1.10,2013-05-14 03:50:00,